Project,Study,Ord_Occ,Event_Num,Cast_ID,Date_Time_UTC,Date_Time_PST,Lat_Dec,Lon_Dec,Sta_ID,Line,Sta,Depth,Pressure,PrQ,Temp1,Temp1Q,Temp2,Temp2Q,TempAve,Salt1,Salt1Q,Salt1_Corr,Salt2,Salt2Q,Salt2_Corr,SaltAve_Corr,Ox1,Ox1Q,Ox1_CruiseCorr,Ox1_StaCorr,Ox2,Ox2Q,Ox2_CruiseCorr,Ox2_StaCorr,OxAve_StaCorr,Ox1uM,Ox1uM_CruiseCorr,Ox1uM_StaCorr,Ox2uM,Ox2uM_CruiseCorr,Ox2uM_StaCorr,OxAveuM_StaCorr,FluorV,FluorQ,EstChl_CruiseCorr,EstChl_StaCorr,ISUSV,ISUSQ,EstNO3_CruiseCorr,EstNO3_StaCorr,SigThetaTS1,SigThetaTS1Q,SigThetaTS2,SigThetaTS2Q,BAT,XMiss,TransQ,pH,pHQ,SPAR,SPARQ,PAR,PARQ,PoT1,PoT2,DynHt,SVA,OxSat1,OxSat2,BTL_Depth,BTL_Temp,SaltB,OxB,OxBuM,Chl-a,Phaeo,NO3,NO2,NH4,PO4,SIL
CalCOFI,2105SH,023,,2105_023u,09-May-2021 04:17:04,08-May-2021 20:17:04,33.41534,-117.90808,090.0 030.0,090.0,030.0,517.000,521.345,,6.8482,,6.8484,,6.8483,34.3174,,34.3186,34.3182,,34.3201,34.3194,0.3120,,0.3924,0.3674,0.3206,,0.3915,0.3723,0.3699,13.569,16.6838,16.6548,13.942,19.7831,17.1514,16.9031,0.0353,,,,0.6004,,0.0000,,26.9085,,26.9090,,,,,,,,,,,6.7994,6.7996,0.8596,121.760,4.585,4.711,517,6.848,34.3160,0.445,19.35,,,38.02,0.00,0.00,3.09,65.81
CalCOFI,2105SH,023,,2105_023u,09-May-2021 04:17:05,08-May-2021 20:17:05,33.41534,-117.90808,090.0 030.0,090.0,030.0,516.000,520.336,,6.8487,,6.8487,,6.8487,34.3175,,34.3187,34.3182,,34.3201,34.3194,0.3120,,0.3924,0.3674,0.3205,,0.3914,0.3722,0.3698,13.567,16.6817,16.6527,13.940,19.7809,17.1493,16.9010,0.0366,,,,0.6005,,0.0000,,26.9084,,26.9090,,,,,,,,,,,6.8000,6.8000,0.8596,121.747,4.584,4.710,,,,,,,,,,,,
CalCOFI,2105SH,023,,2105_023u,09-May-2021 04:17:06,08-May-2021 20:17:06,33.41534,-117.90808,090.0 030.0,090.0,030.0,515.000,519.326,,6.8485,,6.8487,,6.8486,34.3175,,34.3187,34.3182,,34.3201,34.3194,0.3119,,0.3923,0.3673,0.3205,,0.3914,0.3722,0.3698,13.566,16.6807,16.6516,13.938,19.7798,17.1473,16.8995,0.0362,,,,0.6005,,0.0000,,26.9085,,26.9090,,,,,,,,,,,6.7999,6.8000,0.8596,121.731,4.584,4.710,,,,,,,,,,,,
CalCOFI,2105SH,023,,2105_023u,09-May-2021 04:17:07,08-May-2021 20:17:07,33.41534,-117.90808,090.0 030.0,090.0,030.0,514.000,518.316,,6.8484,,6.8485,,6.8485,34.3174,,34.3186,34.3183,,34.3202,34.3194,0.3119,,0.3923,0.3673,0.3205,,0.3914,0.3722,0.3698,13.564,16.6786,16.6495,13.937,19.7777,17.1462,16.8979,0.0354,,,,0.6006,,0.0000,,26.9084,,26.9091,,,,,,,,,,,6.7998,6.8000,0.8596,121.720,4.583,4.709,,,,,,,,,,,,
CalCOFI,2105SH,023,,2105_023u,09-May-2021 04:17:08,08-May-2021 20:17:08,33.41534,-117.90808,090.0 030.0,090.0,030.0,513.000,517.307,,6.8482,,6.8485,,6.8484,34.3175,,34.3187,34.3182,,34.3201,34.3194,0.3118,,0.3922,0.3672,0.3204,,0.3913,0.3721,0.3697,13.562,16.6765,16.6474,13.935,19.7755,17.1442,16.8958,0.0349,,,,0.6006,,0.0000,,26.9085,,26.9090,,,,,,,,,,,6.7998,6.8001,0.8596,121.695,4.583,4.709,,,,,,,,,,,,
CalCOFI,2105SH,023,,2105_023u,09-May-2021 04:17:08,08-May-2021 20:17:08,33.41534,-117.90808,090.0 030.0,090.0,030.0,512.000,516.297,,6.8480,,6.8484,,6.8482,34.3174,,34.3186,34.3183,,34.3202,34.3194,0.3118,,0.3922,0.3672,0.3204,,0.3913,0.3721,0.3697,13.561,16.6755,16.6464,13.933,19.7744,17.1421,16.8943,0.0354,,,,0.6006,,0.0000,,26.9084,,26.9091,,,,,,,,,,,6.7997,6.8001,0.8596,121.686,4.582,4.708,,,,,,,,,,,,
CalCOFI,2105SH,023,,2105_023u,09-May-2021 04:17:09,08-May-2021 20:17:09,33.41534,-117.90808,090.0 030.0,090.0,030.0,511.000,515.287,,6.8483,,6.8482,,6.8483,34.3172,,34.3184,34.3182,,34.3201,34.3193,0.3118,,0.3922,0.3672,0.3203,,0.3912,0.3720,0.3696,13.559,16.6734,16.6443,13.931,19.7723,17.1401,16.8922,0.0361,,,,0.6006,,0.0000,,26.9082,,26.9090,,,,,,,,,,,6.8000,6.8000,0.8596,121.689,4.581,4.707,,,,,,,,,,,,
CalCOFI,2105SH,023,,2105_023u,09-May-2021 04:17:10,08-May-2021 20:17:10,33.41534,-117.90808,090.0 030.0,090.0,030.0,510.000,514.278,,6.8484,,6.8480,,6.8482,34.3172,,34.3184,34.3182,,34.3201,34.3193,0.3117,,0.3921,0.3671,0.3203,,0.3912,0.3720,0.3696,13.557,16.6713,16.6422,13.930,19.7701,17.1390,16.8906,0.0352,,,,0.6006,,0.0000,,26.9082,,26.9090,,,,,,,,,,,6.8002,6.7999,0.8596,121.672,4.581,4.707,,,,,,,,,,,,
CalCOFI,2105SH,023,,2105_023u,09-May-2021 04:17:11,08-May-2021 20:17:11,33.41534,-117.90808,090.0 030.0,090.0,030.0,509.000,513.268,,6.8486,,6.8482,,6.8484,34.3171,,34.3183,34.3182,,34.3201,34.3192,0.3138,,0.3943,0.3693,0.3203,,0.3912,0.3720,0.3707,13.645,16.7633,16.7345,13.928,19.8651,17.1370,16.9358,0.0360,,,,0.6006,,0.0000,,26.9081,,26.9090,,,,,,,,,,,6.8006,6.8001,0.8596,121.668,4.611,4.706,,,,,,,,,,,,
CalCOFI,2105SH,023,,2105_023u,09-May-2021 04:17:12,08-May-2021 20:17:12,33.41534,-117.90808,090.0 030.0,090.0,030.0,508.000,512.258,,6.8488,,6.8484,,6.8486,34.3170,,34.3182,34.3180,,34.3199,34.3191,0.3164,,0.3970,0.3721,0.3202,,0.3911,0.3719,0.3720,13.761,16.8845,16.8563,13.926,19.9904,17.1349,16.9956,0.0365,,,,0.6007,,0.0000,,26.9080,,26.9088,,,,,,,,,,,6.8009,6.8005,0.8596,121.664,4.650,4.705,,,,,,,,,,,,
CalCOFI,2105SH,023,,2105_023u,09-May-2021 04:17:13,08-May-2021 20:17:13,33.41534,-117.90808,090.0 030.0,090.0,030.0,507.000,511.249,,6.8487,,6.8487,,6.8487,34.3170,,34.3182,34.3178,,34.3197,34.3190,0.3109,,0.3912,0.3663,0.3202,,0.3911,0.3719,0.3691,13.519,16.6316,16.6023,13.924,19.7291,17.1328,16.8676,0.0359,,,,0.6007,,0.0000,,26.9080,,26.9085,,,,,,,,,,,6.8009,6.8009,0.8596,121.649,4.568,4.705,,,,,,,,,,,,
CalCOFI,2105SH,023,,2105_023u,09-May-2021 04:17:14,08-May-2021 20:17:14,33.41534,-117.90808,090.0 030.0,090.0,030.0,506.000,510.239,,6.8487,,6.8489,,6.8488,34.3170,,34.3182,34.3177,,34.3196,34.3189,0.3145,,0.3950,0.3701,0.3201,,0.3910,0.3718,0.3710,13.675,16.7946,16.7660,13.922,19.8975,17.1308,16.9484,0.0347,,,,0.6007,,0.0000,,26.9079,,26.9084,,,,,,,,,,,6.8009,6.8011,0.8596,121.638,4.621,4.704,,,,,,,,,,,,
CalCOFI,2105SH,023,,2105_023u,09-May-2021 04:17:14,08-May-2021 20:17:14,33.41534,-117.90808,090.0 030.0,090.0,030.0,505.000,509.230,,6.8487,,6.8489,,6.8488,34.3170,,34.3182,34.3177,,34.3196,34.3189,0.3155,,0.3960,0.3711,0.3201,,0.3910,0.3718,0.3715,13.723,16.8448,16.8164,13.920,19.9494,17.1287,16.9726,0.0354,,,,0.6008,,0.0000,,26.9079,,26.9084,,,,,,,,,,,6.8010,6.8012,0.8596,121.625,4.637,4.704,,,,,,,,,,,,
CalCOFI,2105SH,023,,2105_023u,09-May-2021 04:17:15,08-May-2021 20:17:15,33.41534,-117.90808,090.0 030.0,090.0,030.0,504.000,508.220,,6.8485,,6.8486,,6.8486,34.3170,,34.3182,34.3176,,34.3195,34.3189,0.3157,,0.3963,0.3714,0.3200,,0.3909,0.3717,0.3716,13.730,16.8521,16.8238,13.919,19.9569,17.1277,16.9758,0.0357,,,,0.6008,,0.0000,,26.9079,,26.9084,,,,,,,,,,,6.8009,6.8011,0.8596,121.606,4.639,4.703,,,,,,,,,,,,
CalCOFI,2105SH,023,,2105_023u,09-May-2021 04:17:16,08-May-2021 20:17:16,33.41534,-117.90810,090.0 030.0,090.0,030.0,503.000,507.210,,6.8478,,6.8482,,6.8480,34.3169,,34.3181,34.3174,,34.3193,34.3187,0.3183,,0.3990,0.3741,0.3200,,0.3909,0.3717,0.3729,13.842,16.9692,16.9413,13.917,20.0779,17.1256,17.0335,0.0359,,,,0.6008,,0.0000,,26.9080,,26.9083,,,,,,,,,,,6.8004,6.8008,0.8596,121.586,4.677,4.702,,,,,,,,,,,,
CalCOFI,2105SH,023,,2105_023u,09-May-2021 04:17:17,08-May-2021 20:17:17,33.41532,-117.90810,090.0 030.0,090.0,030.0,502.000,506.201,,6.8469,,6.8484,,6.8477,34.3166,,34.3178,34.3176,,34.3195,34.3187,0.3171,,0.3977,0.3728,0.3230,,0.3940,0.3748,0.3738,13.790,16.9149,16.8867,14.045,20.0217,17.2576,17.0722,0.0358,,,,0.6009,,0.0000,,26.9078,,26.9084,,,,,,,,,,,6.7996,6.8011,0.8596,121.584,4.659,4.746,,,,,,,,,,,,
CalCOFI,2105SH,023,,2105_023u,09-May-2021 04:17:18,08-May-2021 20:17:18,33.41533,-117.90810,090.0 030.0,090.0,030.0,501.000,505.191,,6.8471,,6.8474,,6.8473,34.3164,,34.3176,34.3174,,34.3193,34.3185,0.3158,,0.3964,0.3715,0.3284,,0.3996,0.3805,0.3760,13.733,16.8553,16.8269,14.283,19.9602,17.5031,17.1650,0.0354,,,,0.6010,,0.0000,,26.9076,,26.9084,,,,,,,,,,,6.7998,6.8001,0.8596,121.585,4.640,4.826,,,,,,,,,,,,
CalCOFI,2105SH,023,,2105_023u,09-May-2021 04:17:18,08-May-2021 20:17:18,33.41534,-117.90810,090.0 030.0,090.0,030.0,500.000,504.182,,6.8454,,6.8452,,6.8453,34.3160,,34.3172,34.3167,,34.3186,34.3179,0.3158,,0.3964,0.3715,0.3280,,0.3991,0.3800,0.3758,13.732,16.8542,16.8259,14.264,19.9591,17.4835,17.1547,0.0354,,,,0.6010,,0.0000,,26.9075,,26.9081,,,,,,,,,,,6.7982,6.7981,0.8596,121.579,4.640,4.819,,,,,,,,,,,,
CalCOFI,2105SH,023,,2105_023u,09-May-2021 04:17:19,08-May-2021 20:17:19,33.41534,-117.90810,090.0 030.0,090.0,030.0,499.000,503.172,,6.8438,,6.8443,,6.8441,34.3153,,34.3165,34.3162,,34.3181,34.3173,0.3157,,0.3963,0.3714,0.3247,,0.3957,0.3766,0.3740,13.731,16.8532,16.8248,14.123,19.9580,17.3381,17.0815,0.0352,,,,0.6011,,0.0000,,26.9072,,26.9078,,,,,,,,,,,6.7967,6.7973,0.8596,121.593,4.639,4.772,,,,,,,,,,,,
CalCOFI,2105SH,023,,2105_023u,09-May-2021 04:17:20,08-May-2021 20:17:20,33.41534,-117.90810,090.0 030.0,090.0,030.0,498.000,502.162,,6.8449,,6.8443,,6.8446,34.3156,,34.3168,34.3162,,34.3181,34.3175,0.3157,,0.3963,0.3714,0.3240,,0.3950,0.3759,0.3737,13.729,16.8511,16.8227,14.090,19.9559,17.3040,17.0634,0.0348,,,,0.6012,,0.0000,,26.9073,,26.9078,,,,,,,,,,,6.7979,6.7973,0.8596,121.569,4.639,4.760,,,,,,,,,,,,
CalCOFI,2105SH,023,,2105_023u,09-May-2021 04:17:21,08-May-2021 20:17:21,33.41534,-117.90810,090.0 030.0,090.0,030.0,497.000,501.153,,6.8463,,6.8450,,6.8457,34.3156,,34.3168,34.3163,,34.3182,34.3175,0.3172,,0.3978,0.3729,0.3239,,0.3949,0.3758,0.3744,13.794,16.9190,16.8909,14.088,20.0261,17.3020,17.0965,0.0357,,,,0.6014,,0.0000,,26.9070,,26.9077,,,,,,,,,,,6.7994,6.7981,0.8596,121.577,4.661,4.760,,,,,,,,,,,,
CalCOFI,2105SH,023,,2105_023u,09-May-2021 04:17:22,08-May-2021 20:17:22,33.41534,-117.90810,090.0 030.0,090.0,030.0,496.000,500.143,,6.8467,,6.8450,,6.8459,34.3156,,34.3168,34.3163,,34.3182,34.3175,0.3185,,0.3992,0.3743,0.3239,,0.3949,0.3758,0.3751,13.853,16.9807,16.9529,14.086,20.0898,17.2999,17.1264,0.0358,,,,0.6015,,0.0000,,26.9070,,26.9077,,,,,,,,,,,6.8000,6.7983,0.8596,121.562,4.680,4.759,,,,,,,,,,,,
CalCOFI,2105SH,023,,2105_023u,09-May-2021 04:17:22,08-May-2021 20:17:22,33.41534,-117.90810,090.0 030.0,090.0,030.0,495.000,499.134,,6.8482,,6.8449,,6.8466,34.3154,,34.3166,34.3162,,34.3181,34.3174,0.3194,,0.4001,0.3753,0.3241,,0.3951,0.3760,0.3757,13.892,17.0215,16.9938,14.093,20.1319,17.3071,17.1505,0.0366,,,,0.6017,,0.0000,,26.9066,,26.9077,,,,,,,,,,,6.8015,6.7982,0.8596,121.591,4.694,4.762,,,,,,,,,,,,
CalCOFI,2105SH,023,,2105_023u,09-May-2021 04:17:23,08-May-2021 20:17:23,33.41534,-117.90810,090.0 030.0,090.0,030.0,494.000,498.124,,6.8501,,6.8467,,6.8484,34.3153,,34.3165,34.3167,,34.3186,34.3176,0.3255,,0.4065,0.3817,0.3313,,0.4026,0.3835,0.3826,14.156,17.2975,17.2709,14.406,20.4170,17.6299,17.4504,0.0365,,,,0.6020,,0.0000,,26.9062,,26.9078,,,,,,,,,,,6.8036,6.8001,0.8596,121.610,4.783,4.867,,,,,,,,,,,,
CalCOFI,2105SH,023,,2105_023u,09-May-2021 04:17:24,08-May-2021 20:17:24,33.41534,-117.90810,090.0 030.0,090.0,030.0,493.000,497.115,,6.8527,,6.8515,,6.8521,34.3146,,34.3158,34.3159,,34.3178,34.3168,0.3226,,0.4035,0.3787,0.3346,,0.4060,0.3869,0.3828,14.031,17.1668,17.1397,14.553,20.2820,17.7815,17.4606,0.0364,,,,0.6024,,0.0000,,26.9053,,26.9065,,,,,,,,,,,6.8062,6.8050,0.8596,121.678,4.742,4.918,,,,,,,,,,,,
CalCOFI,2105SH,023,,2105_023u,09-May-2021 04:17:25,08-May-2021 20:17:25,33.41534,-117.90810,090.0 030.0,090.0,030.0,492.000,496.105,,6.8556,,6.8551,,6.8554,34.3134,,34.3146,34.3144,,34.3163,34.3155,0.3271,,0.4082,0.3834,0.3371,,0.4086,0.3895,0.3865,14.225,17.3696,17.3433,14.661,20.4915,17.8929,17.6181,0.0363,,,,0.6028,,0.0000,,26.9040,,26.9049,,,,,,,,,,,6.8091,6.8087,0.8596,121.793,4.807,4.955,,,,,,,,,,,,
CalCOFI,2105SH,023,,2105_023u,09-May-2021 04:17:26,08-May-2021 20:17:26,33.41534,-117.90810,090.0 030.0,090.0,030.0,491.000,495.095,,6.8544,,6.8553,,6.8549,34.3138,,34.3150,34.3144,,34.3163,34.3157,0.3298,,0.4110,0.3863,0.3485,,0.4204,0.4014,0.3939,14.345,17.4951,17.4692,15.158,20.6211,18.4054,17.9373,0.0360,,,,0.6034,,0.0000,,26.9044,,26.9048,,,,,,,,,,,6.8081,6.8090,0.8596,121.735,4.848,5.122,,,,,,,,,,,,
CalCOFI,2105SH,023,,2105_023u,09-May-2021 04:17:27,08-May-2021 20:17:27,33.41534,-117.90810,090.0 030.0,090.0,030.0,490.000,494.086,,6.8551,,6.8602,,6.8577,34.3137,,34.3149,34.3127,,34.3146,34.3148,0.3370,,0.4185,0.3939,0.3523,,0.4243,0.4054,0.3997,14.657,17.8212,17.7967,15.320,20.9581,18.5724,18.1846,0.0357,,,,0.6039,,0.0000,,26.9042,,26.9028,,,,,,,,,,,6.8088,6.8139,0.8596,121.736,4.953,5.178,,,,,,,,,,,,
CalCOFI,2105SH,023,,2105_023u,09-May-2021 04:17:28,08-May-2021 20:17:28,33.41534,-117.90810,090.0 030.0,090.0,030.0,489.000,493.076,,6.8612,,6.8659,,6.8636,34.3117,,34.3129,34.3121,,34.3140,34.3135,0.3515,,0.4337,0.4093,0.3580,,0.4302,0.4114,0.4104,15.287,18.4798,18.4579,15.570,21.6385,18.8303,18.6441,0.0360,,,,0.6045,,0.0000,,26.9018,,26.9015,,,,,,,,,,,6.8151,6.8198,0.8596,121.953,5.167,5.263,,,,,,,,,,,,
CalCOFI,2105SH,023,,2105_023u,09-May-2021 04:17:29,08-May-2021 20:17:29,33.41534,-117.90810,090.0 030.0,090.0,030.0,488.000,492.067,,6.8792,,6.8830,,6.8811,34.3062,,34.3074,34.3087,,34.3106,34.3090,0.3672,,0.4501,0.4259,0.3602,,0.4325,0.4137,0.4198,15.970,19.1938,19.1748,15.666,22.3762,18.9292,19.0520,0.0353,,,,0.6053,,0.0000,,26.8951,,26.8965,,,,,,,,,,,6.8331,6.8369,0.8596,122.594,5.400,5.297,,,,,,,,,,,,
CalCOFI,2105SH,023,,2105_023u,09-May-2021 04:17:30,08-May-2021 20:17:30,33.41533,-117.90810,090.0 030.0,090.0,030.0,487.000,491.057,,6.9253,,6.8936,,6.9095,34.2962,,34.2974,34.3055,,34.3074,34.3024,0.3718,,0.4549,0.4308,0.3693,,0.4419,0.4232,0.4270,16.169,19.4019,19.3836,16.060,22.5911,19.3356,19.3596,0.0356,,,,0.6061,,0.0000,,26.8809,,26.8926,,,,,,,,,,,6.8791,6.8475,0.8596,123.966,5.472,5.432,,,,,,,,,,,,
CalCOFI,2105SH,023,,2105_023u,09-May-2021 04:17:31,08-May-2021 20:17:31,33.41532,-117.90810,090.0 030.0,090.0,030.0,486.000,490.048,,6.9286,,6.8930,,6.9108,34.2992,,34.3004,34.3079,,34.3098,34.3051,0.3732,,0.4564,0.4323,0.3781,,0.4510,0.4323,0.4323,16.229,19.4646,19.4466,16.442,22.6559,19.7295,19.5881,0.0349,,,,0.6072,,0.0000,,26.8828,,26.8945,,,,,,,,,,,6.8825,6.8470,0.8596,123.775,5.493,5.561,,,,,,,,,,,,
CalCOFI,2105SH,023,,2105_023u,09-May-2021 04:17:32,08-May-2021 20:17:32,33.41532,-117.90810,090.0 030.0,090.0,030.0,485.000,489.038,,6.9299,,6.9112,,6.9206,34.3000,,34.3012,34.3061,,34.3080,34.3046,0.3793,,0.4628,0.4388,0.3816,,0.4547,0.4360,0.4374,16.497,19.7448,19.7279,16.597,22.9453,19.8893,19.8086,0.0358,,,,0.6084,,0.0000,,26.8833,,26.8906,,,,,,,,,,,6.8839,6.8653,0.8596,123.716,5.584,5.616,,,,,,,,,,,,
CalCOFI,2105SH,023,,2105_023u,09-May-2021 04:17:32,08-May-2021 20:17:32,33.41532,-117.90810,090.0 030.0,090.0,030.0,484.000,488.029,,6.9466,,6.9304,,6.9385,34.2986,,34.2998,34.3020,,34.3039,34.3019,0.3828,,0.4664,0.4425,0.3902,,0.4636,0.4450,0.4438,16.649,19.9037,19.8874,16.972,23.1095,20.2760,20.0817,0.0362,,,,0.6097,,0.0000,,26.8798,,26.8847,,,,,,,,,,,6.9007,6.8845,0.8596,124.043,5.637,5.745,,,,,,,,,,,,
CalCOFI,2105SH,023,,2105_023u,09-May-2021 04:17:33,08-May-2021 20:17:33,33.41532,-117.90810,090.0 030.0,090.0,030.0,483.000,487.019,,6.9355,,6.9261,,6.9308,34.3000,,34.3012,34.3032,,34.3051,34.3032,0.3893,,0.4732,0.4493,0.4011,,0.4749,0.4563,0.4528,16.933,20.2006,20.1855,17.446,23.4162,20.7648,20.4752,0.0358,,,,0.6112,,0.0000,,26.8824,,26.8863,,,,,,,,,,,6.8897,6.8803,0.8596,123.770,5.732,5.905,,,,,,,,,,,,
CalCOFI,2105SH,023,,2105_023u,09-May-2021 04:17:34,08-May-2021 20:17:34,33.41532,-117.90810,090.0 030.0,090.0,030.0,482.000,486.010,,6.9538,,6.9471,,6.9505,34.2968,,34.2980,34.2995,,34.3014,34.2997,0.4024,,0.4869,0.4632,0.4151,,0.4894,0.4710,0.4671,17.503,20.7964,20.7838,18.051,24.0318,21.3887,21.0863,0.0355,,,,0.6129,,0.0000,,26.8774,,26.8805,,,,,,,,,,,6.9081,6.9013,0.8596,124.246,5.927,6.112,,,,,,,,,,,,
CalCOFI,2105SH,023,,2105_023u,09-May-2021 04:17:35,08-May-2021 20:17:35,33.41532,-117.90810,090.0 030.0,090.0,030.0,481.000,485.000,,6.9775,,6.9708,,6.9742,34.2932,,34.2944,34.2968,,34.2987,34.2966,0.4124,,0.4974,0.4738,0.4187,,0.4931,0.4747,0.4743,17.937,21.2501,21.2393,18.210,24.5005,21.5527,21.3960,0.0363,,,,0.6148,,0.0000,,26.8714,,26.8751,,,,,,,,,,,6.9318,6.9251,0.8596,124.823,6.077,6.169,,,,,,,,,,,,
CalCOFI,2105SH,023,,2105_023u,09-May-2021 04:17:37,08-May-2021 20:17:37,33.41532,-117.90810,090.0 030.0,090.0,030.0,480.000,483.991,,7.0234,,7.0064,,7.0149,34.2881,,34.2893,34.2924,,34.2943,34.2918,0.4178,,0.5030,0.4796,0.4227,,0.4972,0.4789,0.4793,18.169,21.4927,21.4828,18.383,24.7511,21.7311,21.6070,0.0359,,,,0.6168,,0.0000,,26.8610,,26.8668,,,,,,,,,,,6.9776,6.9607,0.8596,125.832,6.162,6.233,,,,,,,,,,,,
CalCOFI,2105SH,023,,2105_023u,09-May-2021 04:17:38,08-May-2021 20:17:38,33.41532,-117.90810,090.0 030.0,090.0,030.0,479.000,482.981,,7.0031,,6.9915,,6.9973,34.2937,,34.2949,34.2958,,34.2977,34.2963,0.4239,,0.5094,0.4860,0.4311,,0.5059,0.4877,0.4869,18.437,21.7728,21.7641,18.750,25.0405,22.1096,21.9369,0.0364,,,,0.6186,,0.0000,,26.8682,,26.8715,,,,,,,,,,,6.9574,6.9459,0.8596,125.115,6.251,6.355,,,,,,,,,,,,
CalCOFI,2105SH,023,,2105_023u,09-May-2021 04:17:38,08-May-2021 20:17:38,33.41532,-117.90810,090.0 030.0,090.0,030.0,478.000,481.972,,7.0154,,7.0201,,7.0178,34.2881,,34.2893,34.2902,,34.2921,34.2907,0.4289,,0.5146,0.4913,0.4379,,0.5130,0.4948,0.4931,18.655,22.0007,21.9929,19.044,25.2760,22.4128,22.2029,0.0357,,,,0.6203,,0.0000,,26.8621,,26.8631,,,,,,,,,,,6.9698,6.9745,0.8596,125.691,6.326,6.459,,,,,,,,,,,,
CalCOFI,2105SH,023,,2105_023u,09-May-2021 04:17:39,08-May-2021 20:17:39,33.41532,-117.90810,090.0 030.0,090.0,030.0,477.000,480.962,,7.0392,,7.0383,,7.0388,34.2862,,34.2874,34.2906,,34.2925,34.2900,0.4307,,0.5165,0.4932,0.4406,,0.5158,0.4976,0.4954,18.733,22.0823,22.0747,19.163,25.3602,22.5355,22.3051,0.0362,,,,0.6218,,0.0000,,26.8574,,26.8609,,,,,,,,,,,6.9936,6.9927,0.8596,126.147,6.356,6.502,,,,,,,,,,,,
CalCOFI,2105SH,023,,2105_023u,09-May-2021 04:17:40,08-May-2021 20:17:40,33.41532,-117.90810,090.0 030.0,090.0,030.0,476.000,479.953,,7.0564,,7.0657,,7.0611,34.2897,,34.2909,34.2888,,34.2907,34.2908,0.4308,,0.5166,0.4933,0.4437,,0.5190,0.5008,0.4971,18.735,22.0844,22.0768,19.297,25.3624,22.6737,22.3753,0.0358,,,,0.6233,,0.0000,,26.8577,,26.8558,,,,,,,,,,,7.0109,7.0201,0.8596,126.122,6.359,6.551,,,,,,,,,,,,
CalCOFI,2105SH,023,,2105_023u,09-May-2021 04:17:41,08-May-2021 20:17:41,33.41532,-117.90810,090.0 030.0,090.0,030.0,475.000,478.943,,7.0696,,7.0792,,7.0744,34.2888,,34.2900,34.2882,,34.2901,34.2901,0.4363,,0.5224,0.4992,0.4447,,0.5200,0.5019,0.5006,18.974,22.3342,22.3277,19.341,25.6205,22.7190,22.5234,0.0354,,,,0.6249,,0.0000,,26.8552,,26.8534,,,,,,,,,,,7.0241,7.0337,0.8596,126.357,6.442,6.568,,,,,,,,,,,,
CalCOFI,2105SH,023,,2105_023u,09-May-2021 04:17:42,08-May-2021 20:17:42,33.41532,-117.90810,090.0 030.0,090.0,030.0,474.000,477.934,,7.0903,,7.0884,,7.0894,34.2879,,34.2891,34.2909,,34.2928,34.2910,0.4384,,0.5246,0.5014,0.4394,,0.5145,0.4963,0.4989,19.068,22.4325,22.4263,19.109,25.7220,22.4798,22.4531,0.0354,,,,0.6268,,0.0000,,26.8516,,26.8543,,,,,,,,,,,7.0448,7.0429,0.8596,126.700,6.477,6.491,,,,,,,,,,,,
CalCOFI,2105SH,023,,2105_023u,09-May-2021 04:17:43,08-May-2021 20:17:43,33.41532,-117.90810,090.0 030.0,090.0,030.0,473.000,476.924,,7.0999,,7.0830,,7.0915,34.2884,,34.2896,34.2907,,34.2926,34.2911,0.4381,,0.5243,0.5011,0.4443,,0.5196,0.5014,0.5013,19.055,22.4189,22.4127,19.325,25.7080,22.7025,22.5576,0.0361,,,,0.6288,,0.0000,,26.8506,,26.8548,,,,,,,,,,,7.0545,7.0376,0.8596,126.781,6.474,6.563,,,,,,,,,,,,
CalCOFI,2105SH,023,,2105_023u,09-May-2021 04:17:44,08-May-2021 20:17:44,33.41532,-117.90810,090.0 030.0,090.0,030.0,472.000,475.915,,7.0979,,7.0885,,7.0932,34.2887,,34.2899,34.2906,,34.2925,34.2912,0.4432,,0.5296,0.5065,0.4475,,0.5229,0.5048,0.5057,19.276,22.6499,22.6446,19.461,25.9466,22.8428,22.7437,0.0361,,,,0.6305,,0.0000,,26.8512,,26.8539,,,,,,,,,,,7.0526,7.0432,0.8596,126.712,6.549,6.611,,,,,,,,,,,,
CalCOFI,2105SH,023,,2105_023u,09-May-2021 04:17:45,08-May-2021 20:17:45,33.41532,-117.90810,090.0 030.0,090.0,030.0,471.000,474.906,,7.0956,,7.0876,,7.0916,34.2871,,34.2883,34.2892,,34.2911,34.2897,0.4437,,0.5301,0.5070,0.4503,,0.5258,0.5077,0.5074,19.296,22.6708,22.6656,19.585,25.9682,22.9707,22.8182,0.0364,,,,0.6321,,0.0000,,26.8502,,26.8530,,,,,,,,,,,7.0504,7.0424,0.8596,126.785,6.555,6.652,,,,,,,,,,,,
CalCOFI,2105SH,023,,2105_023u,09-May-2021 04:17:46,08-May-2021 20:17:46,33.41532,-117.90810,090.0 030.0,090.0,030.0,470.000,473.896,,7.0957,,7.0991,,7.0974,34.2878,,34.2890,34.2892,,34.2911,34.2901,0.4479,,0.5345,0.5114,0.4533,,0.5289,0.5108,0.5111,19.480,22.8632,22.8588,19.715,26.1670,23.1047,22.9818,0.0357,,,,0.6333,,0.0000,,26.8508,,26.8514,,,,,,,,,,,7.0506,7.0540,0.8596,126.717,6.618,6.698,,,,,,,,,,,,
CalCOFI,2105SH,023,,2105_023u,09-May-2021 04:17:47,08-May-2021 20:17:47,33.41532,-117.90810,090.0 030.0,090.0,030.0,469.000,472.887,,7.1080,,7.1046,,7.1063,34.2856,,34.2868,34.2890,,34.2909,34.2889,0.4508,,0.5375,0.5145,0.4575,,0.5333,0.5152,0.5149,19.608,22.9970,22.9931,19.899,26.3052,23.2945,23.1438,0.0346,,,,0.6345,,0.0000,,26.8473,,26.8504,,,,,,,,,,,7.0630,7.0595,0.8596,127.040,6.663,6.762,,,,,,,,,,,,
CalCOFI,2105SH,023,,2105_023u,09-May-2021 04:17:48,08-May-2021 20:17:48,33.41532,-117.90810,090.0 030.0,090.0,030.0,468.000,471.877,,7.1066,,7.1024,,7.1045,34.2876,,34.2888,34.2890,,34.2909,34.2899,0.4501,,0.5368,0.5138,0.4586,,0.5344,0.5164,0.5151,19.575,22.9625,22.9585,19.945,26.2696,23.3419,23.1502,0.0356,,,,0.6355,,0.0000,,26.8491,,26.8507,,,,,,,,,,,7.0616,7.0574,0.8596,126.856,6.652,6.777,,,,,,,,,,,,
CalCOFI,2105SH,023,,2105_023u,09-May-2021 04:17:49,08-May-2021 20:17:49,33.41532,-117.90810,090.0 030.0,090.0,030.0,467.000,470.868,,7.1214,,7.1235,,7.1225,34.2852,,34.2864,34.2872,,34.2891,34.2878,0.4545,,0.5414,0.5184,0.4618,,0.5377,0.5197,0.5191,19.769,23.1653,23.1621,20.084,26.4791,23.4852,23.3237,0.0361,,,,0.6365,,0.0000,,26.8451,,26.8464,,,,,,,,,,,7.0765,7.0786,0.8596,127.227,6.720,6.827,,,,,,,,,,,,
CalCOFI,2105SH,023,,2105_023u,09-May-2021 04:17:50,08-May-2021 20:17:50,33.41532,-117.90810,090.0 030.0,090.0,030.0,466.000,469.858,,7.1273,,7.1229,,7.1251,34.2845,,34.2857,34.2870,,34.2889,34.2873,0.4548,,0.5417,0.5188,0.4633,,0.5393,0.5213,0.5201,19.779,23.1758,23.1726,20.152,26.4899,23.5554,23.3640,0.0357,,,,0.6375,,0.0000,,26.8438,,26.8463,,,,,,,,,,,7.0824,7.0781,0.8596,127.347,6.724,6.850,,,,,,,,,,,,
CalCOFI,2105SH,023,,2105_023u,09-May-2021 04:17:51,08-May-2021 20:17:51,33.41532,-117.90810,090.0 030.0,090.0,030.0,465.000,468.849,,7.1232,,7.1278,,7.1255,34.2856,,34.2868,34.2870,,34.2889,34.2879,0.4583,,0.5454,0.5225,0.4648,,0.5408,0.5228,0.5227,19.934,23.3378,23.3353,20.216,26.6573,23.6214,23.4784,0.0350,,,,0.6383,,0.0000,,26.8451,,26.8456,,,,,,,,,,,7.0785,7.0831,0.8596,127.196,6.776,6.873,,,,,,,,,,,,
CalCOFI,2105SH,023,,2105_023u,09-May-2021 04:17:52,08-May-2021 20:17:52,33.41532,-117.90812,090.0 030.0,090.0,030.0,464.000,467.840,,7.1315,,7.1281,,7.1298,34.2832,,34.2844,34.2858,,34.2877,34.2861,0.4583,,0.5454,0.5225,0.4605,,0.5364,0.5184,0.5205,19.933,23.3368,23.3342,20.027,26.6562,23.4265,23.3804,0.0365,,,,0.6390,,0.0000,,26.8421,,26.8446,,,,,,,,,,,7.0869,7.0835,0.8596,127.471,6.777,6.809,,,,,,,,,,,,
CalCOFI,2105SH,023,,2105_023u,09-May-2021 04:17:53,08-May-2021 20:17:53,33.41532,-117.90812,090.0 030.0,090.0,030.0,463.000,466.830,,7.1429,,7.1356,,7.1393,34.2831,,34.2843,34.2855,,34.2874,34.2859,0.4594,,0.5465,0.5236,0.4672,,0.5433,0.5253,0.5245,19.980,23.3859,23.3835,20.320,26.7070,23.7286,23.5561,0.0356,,,,0.6397,,0.0000,,26.8404,,26.8433,,,,,,,,,,,7.0983,7.0910,0.8596,127.624,6.795,6.910,,,,,,,,,,,,
CalCOFI,2105SH,023,,2105_023u,09-May-2021 04:17:54,08-May-2021 20:17:54,33.41532,-117.90812,090.0 030.0,090.0,030.0,462.000,465.821,,7.1490,,7.1324,,7.1407,34.2835,,34.2847,34.2868,,34.2887,34.2867,0.4641,,0.5515,0.5286,0.4665,,0.5426,0.5246,0.5266,20.186,23.6012,23.5998,20.289,26.9294,23.6966,23.6482,0.0364,,,,0.6404,,0.0000,,26.8399,,26.8448,,,,,,,,,,,7.1045,7.0879,0.8596,127.666,6.866,6.899,,,,,,,,,,,,